TimeMST,TemperatureF,Dew PointF,Humidity,Sea Level PressureIn,VisibilityMPH,Wind Direction,Wind SpeedMPH,Gust SpeedMPH,PrecipitationIn,Events,Conditions,WindDirDegrees,DateUTC
12:53 AM,12.0,8.1,84,30.19,10.0,West,5.8,-,N/A,,Clear,270,2013-02-19 07:53:00
1:53 AM,12.0,9.0,88,30.19,10.0,West,8.1,-,N/A,,Clear,260,2013-02-19 08:53:00
2:53 AM,10.9,7.0,84,30.19,10.0,West,5.8,-,N/A,,Clear,260,2013-02-19 09:53:00
3:53 AM,10.0,7.0,87,30.19,10.0,WSW,5.8,-,N/A,,Clear,250,2013-02-19 10:53:00
4:53 AM,12.0,8.1,84,30.21,10.0,WSW,4.6,-,N/A,,Clear,250,2013-02-19 11:53:00
5:53 AM,9.0,6.1,88,30.24,10.0,Calm,Calm,-,N/A,,Clear,0,2013-02-19 12:53:00
6:53 AM,10.9,8.1,88,30.27,10.0,SE,4.6,-,N/A,,Clear,140,2013-02-19 13:53:00
7:53 AM,21.9,19.0,89,30.26,10.0,ESE,8.1,-,N/A,,Clear,120,2013-02-19 14:53:00
8:53 AM,27.0,19.9,75,30.26,10.0,SSE,17.3,-,N/A,,Clear,150,2013-02-19 15:53:00
9:53 AM,32.0,19.9,61,30.21,10.0,ESE,16.1,-,N/A,,Clear,120,2013-02-19 16:53:00
11:53 AM,39.9,18.0,41,30.14,10.0,SE,24.2,28.8,N/A,,Clear,130,2013-02-19 18:53:00
12:53 PM,42.1,16.0,35,30.11,10.0,SSE,27.6,35.7,N/A,,Clear,150,2013-02-19 19:53:00
1:53 PM,43.0,15.1,32,30.06,10.0,SSE,23.0,32.2,N/A,,Clear,150,2013-02-19 20:53:00
2:53 PM,42.1,16.0,35,30.04,10.0,SSE,24.2,33.4,N/A,,Clear,150,2013-02-19 21:53:00
3:53 PM,42.1,16.0,35,30.02,10.0,SE,26.5,34.5,N/A,,Clear,130,2013-02-19 22:53:00
5:53 PM,34.0,15.1,46,30.04,10.0,ESE,23.0,29.9,N/A,,Clear,120,2013-02-20 00:53:00
6:53 PM,32.0,15.1,50,30.05,10.0,ESE,25.3,32.2,N/A,,Clear,120,2013-02-20 01:53:00
7:53 PM,30.0,15.1,54,30.02,10.0,SE,27.6,35.7,N/A,,Clear,130,2013-02-20 02:53:00
8:53 PM,27.0,14.0,58,30.01,10.0,SE,23.0,33.4,N/A,,Clear,130,2013-02-20 03:53:00
9:53 PM,27.0,15.1,61,29.98,10.0,SE,24.2,32.2,N/A,,Clear,140,2013-02-20 04:53:00
10:53 PM,27.0,16.0,63,29.94,10.0,SE,26.5,32.2,N/A,,Clear,140,2013-02-20 05:53:00
11:53 PM,28.0,18.0,66,29.92,10.0,SE,27.6,35.7,N/A,,Clear,140,2013-02-20 06:53:00